Weather History for KPQL - September, 2013

Change the Weather History Date:

Thursday, September 5, 2013

  Actual Average Record
Temperature  
Mean Temperature 80 °F -  
Max Temperature 90 °F 88 °F 95 °F (1954)
Min Temperature 71 °F 72 °F 60 °F (1974)
Cooling Degree Days 15    
Growing Degree Days 30 (Base 50)    
Moisture  
Dew Point 74 °F    
Average Humidity 86    
Maximum Humidity 100    
Minimum Humidity 59    
Precipitation  
Precipitation 0.03 in - - ()
Sea Level Pressure  
Sea Level Pressure 30.07 in    
Wind  
Wind Speed 1 mph (East)    
Max Wind Speed 9 mph    
Max Gust Speed -    
Visibility 7 miles    
Events      
Averages and records for this station are not official NWS values.
T = Trace of Precipitation, MM = Missing Value Source: NWS Daily Summary

Daily Weather History Graph

Daily Weather History Graph

Search for Another Location

Airport or City:

Trip Planner

Search our weather history database for the weather conditions in past years. The results will help you decide how hot, cold, wet, or windy it might be!

Date:

Astronomy

Sep. 05, 2013 Rise Set
Actual Time 6:33 AM CDT 7:11 PM CDT
Civil Twilight 6:08 AM CDT 7:36 PM CDT
Nautical Twilight 5:40 AM CDT 8:04 PM CDT
Astronomical Twilight 5:10 AM CDT 8:33 PM CDT
Moon 6:40 AM CDT (9/5) 7:09 PM CDT (9/5)
Length of Visible Light 13h 27m
Length of Day
12h 38m
New Moon, 0% of the Moon is Illuminated
Sep 5
New Moon
Sep 12
First Quarter
Sep 19
Full
Sep 26
Last Quarter
Oct 4
New

Hourly Weather History & Observations

Time (CDT) Temp. Heat Index Dew Point Humidity Pressure Visibility Wind Dir Wind Speed Gust Speed Precip Events Conditions
12:53 AM 75.0 °F - 73.9 °F 96% 30.05 in 6.0 mi Calm Calm - N/A   Clear
1:53 AM 73.9 °F - 73.0 °F 97% 30.05 in 2.5 mi Calm Calm - N/A   Clear
2:06 AM 73.4 °F - 73.4 °F 100% 30.04 in 4.0 mi Calm Calm - N/A   Clear
2:26 AM 73.4 °F - 73.4 °F 100% 30.04 in 1.5 mi Calm Calm - N/A   Clear
2:37 AM 73.4 °F - 73.4 °F 100% 30.04 in 3.0 mi Calm Calm - N/A   Clear
2:53 AM 73.0 °F - 72.0 °F 96% 30.04 in 2.5 mi Calm Calm - N/A   Clear
3:08 AM 73.4 °F - 71.6 °F 94% 30.04 in 1.0 mi Calm Calm - N/A   Clear
3:15 AM 73.4 °F - 71.6 °F 94% 30.04 in 3.0 mi Calm Calm - N/A   Clear
3:22 AM 71.6 °F - 71.6 °F 100% 30.04 in 1.5 mi Calm Calm - N/A   Clear
3:40 AM 73.4 °F - 71.6 °F 94% 30.05 in 2.0 mi North 3.5 mph - N/A   Clear
3:53 AM 73.0 °F - 73.0 °F 100% 30.05 in 4.0 mi Calm Calm - N/A   Clear
4:23 AM 73.4 °F - 73.4 °F 100% 30.05 in 5.0 mi Calm Calm - N/A   Mostly Cloudy
4:53 AM 73.9 °F - 73.0 °F 97% 30.06 in 6.0 mi Calm Calm - N/A   Scattered Clouds
5:53 AM 73.0 °F - 72.0 °F 96% 30.07 in 5.0 mi Calm Calm - N/A   Clear
6:53 AM 73.0 °F - 72.0 °F 96% 30.09 in 4.0 mi Calm Calm - N/A   Clear
7:53 AM 78.1 °F - 75.0 °F 90% 30.10 in 10.0 mi Calm Calm - N/A   Clear
8:53 AM 82.9 °F 90.8 °F 75.9 °F 79% 30.11 in 10.0 mi Calm Calm - N/A   Clear
9:53 AM 87.1 °F 96.3 °F 75.0 °F 67% 30.12 in 10.0 mi Variable 3.5 mph - N/A   Partly Cloudy
10:50 AM 87.8 °F 95.6 °F 73.4 °F 62% 30.12 in 10.0 mi North 4.6 mph - N/A   Overcast
10:53 AM 87.1 °F 95.4 °F 73.9 °F 65% 30.12 in 10.0 mi North 5.8 mph - N/A   Overcast
11:03 AM 87.8 °F 95.6 °F 73.4 °F 62% 30.12 in 10.0 mi NNE 4.6 mph - N/A   Mostly Cloudy
11:53 AM 82.9 °F 90.2 °F 75.0 °F 77% 30.12 in 10.0 mi South 9.2 mph - N/A   Overcast
12:53 PM 77.0 °F - 72.0 °F 84% 30.12 in 10.0 mi SE 8.1 mph - 0.03 in   Scattered Clouds
1:53 PM 84.0 °F 91.2 °F 73.9 °F 72% 30.09 in 10.0 mi Calm Calm - 0.00 in   Clear
2:53 PM 88.0 °F 97.5 °F 75.0 °F 65% 30.06 in 10.0 mi SSE 4.6 mph - N/A   Clear
3:53 PM 89.1 °F 97.0 °F 73.0 °F 59% 30.06 in 10.0 mi SE 6.9 mph - N/A   Partly Cloudy
4:53 PM 88.0 °F 95.6 °F 73.0 °F 61% 30.05 in 10.0 mi South 5.8 mph - N/A   Clear
5:53 PM 84.0 °F 91.9 °F 75.0 °F 74% 30.06 in 10.0 mi Calm Calm - N/A   Clear
6:53 PM 82.0 °F 89.4 °F 75.9 °F 82% 30.06 in 10.0 mi Calm Calm - N/A   Clear
7:53 PM 79.0 °F - 75.9 °F 90% 30.06 in 10.0 mi Calm Calm - N/A   Clear
8:53 PM 79.0 °F - 75.9 °F 90% 30.08 in 10.0 mi Calm Calm - N/A   Clear
9:53 PM 78.1 °F - 75.9 °F 93% 30.09 in 10.0 mi Calm Calm - N/A   Clear
10:53 PM 77.0 °F - 75.9 °F 96% 30.10 in 10.0 mi Calm Calm - N/A   Clear
11:53 PM 75.9 °F - 75.0 °F 97% 30.09 in 10.0 mi Calm Calm - N/A   Clear